Regional Weather Roundup
Issued by NWS State College, PA

Current Version | Previous Version | Text Only | Print | Product List | Glossary On
Versions: 1 2 3 4 5 6 7 8 9 10 11 12 13 14 15 16 17 18 19 20 21 22 23 24 25 26 27 28 29 30 31 32 33 34 35 36 37 38 39 40 41 42 43 44 45 46 47 48 49 50
000
ASUS41 KCTP 241210
RWRCTP

REGIONAL WEATHER ROUNDUP
NATIONAL WEATHER SERVICE STATE COLLEGE PA
800 AM EDT TUE MAY 24 2022

Note: "fair" indicates few or no clouds below 12,000 feet with no
significant weather and/or obstructions to visibility.

* = STATION THAT DOES NOT REPORT PRECIPITATION /E.G. RAIN...SNOW...ETC/
    THUNDER OR FOG.

PAZ002>004-007>009-013>016-020>023-029>032-241300-
WESTERN PENNSYLVANIA

CITY           SKY/WX    TMP DP  RH WIND       PRES   REMARKS
ERIE           SUNNY     53  45  74 E7        30.25S
MEADVILLE      SUNNY     51  44  77 E7        30.23S
FRANKLIN       SUNNY     50  46  86 NE7       30.25R
NEW CASTLE     CLOUDY    52  47  83 NE5       30.22S
BEAVER COUNTY  MOSUNNY   55  46  70 N6        30.20R
BUTLER         SUNNY     54  47  77 NE9       30.21R
PITTSBURGH INT PTSUNNY   54  48  80 E9        30.19R
PITTSBURGH     MOSUNNY   57  48  72 E8        30.18R
INDIANA*       CLOUDY    55  52  88 E6        30.24R
LATROBE        MOSUNNY   57  50  77 E7        30.19R
WASHINGTON CO* MOSUNNY   56  50  80 NE7       30.20R
$$

PAZ004>006-010>012-017>019-024>028-033>037-041-042-045-046-049>053-241300-
CENTRAL PENNSYLVANIA

CITY           SKY/WX    TMP DP  RH WIND       PRES   REMARKS
BRADFORD       SUNNY     52  42  69 E6        30.26R
ST MARYS       CLOUDY    52  45  76 E3        30.28R
DUBOIS         CLOUDY    51  45  79 E6        30.23R
CLEARFIELD     CLOUDY    51  46  83 NE6       30.25R
JOHNSTOWN      CLOUDY    51  47  86 E5        30.21S
SOMERSET       CLOUDY    48  46  93 E9        30.22R
ALTOONA        CLOUDY    56  49  77 E5        30.24R
STATE COLLEGE  CLOUDY    54  48  82 NE7       30.24S
REEDSVILLE     CLOUDY    59  50  72 NE5       30.23
WELLSBORO      CLOUDY    46  46 100 CALM      30.27R
WILLIAMSPORT   CLOUDY    57  45  64 CALM      30.25R
SELINSGROVE    CLOUDY    57  52  83 NW3       30.25R
FT INDIANTOWN  CLOUDY    60  46  61 NE3       30.23R
CAPITAL CITY   CLOUDY    65  53  65 NE6       30.23R
HARRISBURG     CLOUDY    62  51  67 N3        30.22R
YORK           CLOUDY    60  54  80 CALM      30.23R
$$

PAZ038>040-043-044-047-048-054-055-060>062-067>071-241300-
EASTERN PENNSYLVANIA

CITY           SKY/WX    TMP DP  RH WIND       PRES   REMARKS
TOWANDA        MOSUNNY   52  48  87 NE3       30.32R
SCRANTON       CLOUDY    57  44  62 NE7       30.27R
MOUNT POCONO   CLOUDY    50  42  74 VRB7      30.28R
HAZLETON       CLOUDY    55  43  62 CALM      30.29R
LEHIGHTON      CLOUDY    57  43  58 E5        30.28R
ALLENTOWN      CLOUDY    59  45  59 NE12      30.26R
QN CITY/ALNTWN CLOUDY    61  46  59 N7        30.27R
QUAKERTOWN*    CLOUDY    61  52  72 VRB6      30.26R
PERKASIE*      CLOUDY    59  54  82 E5        30.27R
DOYLESTOWN     CLOUDY    61  52  72 CALM      30.25R
READING        CLOUDY    62  50  64 MISG      30.23R
LANCASTER      CLOUDY    63  51  65 NE7       30.22S
COATESVILLE    PTSUNNY   59  59 100 E9G16     30.25R
WEST CHESTER   CLOUDY    59  52  77 E5        30.25R
POTTSTOWN      CLOUDY    59  53  80 E5        30.26R
BLUE BELL      CLOUDY    60  54  82 E6        30.25S
NORTH PHILA    CLOUDY    61  57  87 NE6       30.26R
PHILADELPHIA   CLOUDY    63  54  72 E6        30.25R
$$



USA.gov is the U.S. government's official web portal to all federal, state and local government web resources and services.